User: anonymous   Login
Location: *
(37.5724°S, 58.0067°E)
Time: 17:30:36
(UTC+00:00)
Language:

Cosmos 1025 Rocket - Orbit

View from above orbital plane
View from above orbital plane
View from above satellite
View from above satellite

Ground track
Ground track

The orbit data is extracted from the following two-line orbital elements,

1 10974U 78067B   20333.33293383  .00000132  00000-0  11789-4 0  9990
2 10974  82.4846  55.6266 0018683 124.5023 235.7961 14.87371363294863
Epoch (UTC): 28 November 2020 07:59:25
Eccentricity: 0.0018683
inclination: 82.4846°
perigee height: 593 km
apogee height: 619 km
right ascension of ascending node: 55.6266°
argument of perigee: 124.5023°
revolutions per day: 14.87371363
mean anomaly at epoch: 235.7961°
orbit number at epoch: 29486

The dashed part of the orbit path shows where the satellite is in the earth's shadow,  

DLR